ARIANE 1 DEB

Satellite information

Favourite Embed

Satellite Type and Status

DEBRISIN ORBIT

Key statistics

Satellite ARIANE 1 DEB at a glance.

Uptime

16694

Days in orbit

Revolutions

≈ 4.1

Per day

Orbit

MEO

Medium Earth Orbit

Inclination

19.8

Latest

Satellite identification and parameters

Extended collection of information and parameters for ARIANE 1 DEB.

Object identification

Identified? True

Debris? True

Object name: ARIANE 1 DEB

International designator: 1979-104R

Object number (NORAD): 26535

Object ID (CCSDS): 26535

Country: FRANCE (FR)

Current information (Y/N): Y

RCS size: MEDIUM

Orbital parameters

Period: 348.681 minutes

Inclination: 19.786 deg

SMA: 16410.134 km

Apoapsis: 19677.403 km

Periapsis: 386.595 km

RAAN: 51.7047 deg

Eccentricy: 0.5877712

Argument of periapsis: 10.6027 deg

Mean anomaly: 357.7453 deg

Mean motion: 4.12985289 rev/day

Mean motion (dot): 0.00005204 rev/day2

B* drag term: 0.0042599298 1/REarth

Two-line elements (TLE)

Creation date: Sept. 7, 2025, 3:09 a.m.

Reference frame: TEME

Reference center: EARTH

Epoch: Sept. 6, 2025, 8:24 a.m. UTC

TLE line 0: 0 ARIANE 1 DEB

TLE line 1: 1 26535U 79104R 25249.35053709 .00005204 00000-0 42599-2 0 9998

TLE line 2: 2 26535 19.7860 51.7047 5877712 10.6027 357.7453 4.12985289182802

Live tracking on map

Real-time ground track for satellite ARIANE 1 DEB.

In-orbit conjunctions

A list of the most updated potential collisions computed for object ARIANE 1 DEB.

Target Orbit TCA Probability of collision Miss distance Type
COSMOS 1490 (GLONASS) MEO 2024-12-26 16:55:11 TBA 2690.0 (m) PAYLOAD

Associated space launch

Vehicle evaluation payload for the Ariane 1 launch vehicle

ARIANE 1 DEB was lifted into orbit during the mission ‘Ariane 1 | CAT 1’, on board a Ariane 1 space rocket.

The launch took place on Dec. 24, 1979, 5:14 p.m. from Ariane Launch Area 1 (ELV).

For more information about the launch, click the button.

Launch to space Ariane 1 | CAT 1
Ariane 1 | CAT 1

Agency: N/A

Status: Launch Successful

Launch date: Dec. 24, 1979, 5:14 p.m. UTC

Rocket: Ariane 1

Launch pad: Ariane Launch Area 1 (ELV)

Location: Guiana Space Centre, French Guiana

...

Latest news about this satellite

There are no fresh news available about this satellite. Check back as we update our databases every day.


Newsletter sign-up

Weekly statistics, charts and insights to help you stay on top of the space industry.